Theta_e
341 344 346 347 348 349 348 350 350 349 350 349 349 349 348 348 346 346 347 347 347 348 347 347 346 343 342 342 344 342 342 341 342 343 342 343 343 342 344 345 345 345 348 349 349 349 350 349 349 348 348 347 346 346 346 345 345 344 343 342 342 343 344 342 340 340 339 339 340 341 340 342 344 342 341 341 342 341 340 339 339 337 338 341 346
342 345 346 347 348 348 348 349 349 349 349 349 348 347 348 347 346 346 347 347 347 347 346 346 346 344 343 342 342 341 341 340 340 341 342 342 342 343 343 343 343 343 344 348 348 348 348 348 347 347 346 347 346 345 345 344 343 343 342 342 342 342 342 343 339 339 340 339 339 339 339 340 341 341 340 341 341 340 340 339 339 335 335 342 344
344 346 346 346 347 348 348 348 349 349 348 348 349 348 347 346 347 347 347 347 347 347 346 345 345 344 343 343 341 341 340 340 340 340 340 340 341 340 340 340 345 348 349 348 348 347 346 346 346 345 345 345 344 343 342 342 341 341 341 341 342 342 341 341 341 341 340 339 338 338 338 339 339 339 340 340 340 340 340 339 339 339 333 340 341
343 345 344 345 347 348 348 348 348 348 348 348 348 348 348 348 348 347 347 346 346 345 346 345 345 344 343 342 341 340 340 340 339 339 339 339 340 340 340 341 345 348 348 348 347 346 345 344 343 343 342 342 344 342 341 340 340 339 339 340 341 342 341 341 340 339 339 338 337 335 333 331 334 338 339 340 340 340 339 339 339 339 338 339 340
344 344 344 345 346 346 348 348 348 348 348 349 348 348 348 348 347 347 346 346 346 346 345 345 345 343 341 342 342 340 340 340 339 339 339 339 339 339 340 340 346 348 347 347 346 345 345 342 342 342 341 341 341 340 339 338 339 339 340 341 341 341 342 343 340 339 338 337 336 334 330 331 332 337 339 339 339 338 338 338 339 339 338 338 338
344 345 345 345 345 345 347 349 348 348 348 348 348 347 347 347 347 347 346 346 346 345 345 345 345 345 344 342 341 340 340 340 340 339 339 338 339 339 339 344 346 346 346 347 345 343 341 341 341 341 341 341 340 338 337 339 340 340 340 340 342 342 342 341 340 338 336 336 334 329 329 330 331 333 338 339 338 337 337 337 338 338 338 339 338
344 344 345 346 345 344 345 349 348 348 348 348 348 347 348 348 347 346 346 346 346 346 346 346 345 342 342 343 342 340 339 340 340 339 338 339 339 338 342 345 345 345 344 344 344 343 343 342 341 341 342 341 339 336 337 339 339 339 340 340 340 342 341 341 339 337 335 331 327 328 328 329 330 332 338 338 338 338 337 338 338 337 337 338 337
345 344 345 346 344 343 346 348 348 348 348 348 348 348 347 347 347 346 346 346 346 346 346 345 345 344 342 341 340 340 340 340 339 339 339 338 339 339 340 341 342 342 342 341 341 340 341 340 342 341 341 340 337 336 338 339 339 339 339 340 341 341 342 338 338 336 335 328 327 327 328 329 329 331 336 337 336 336 336 337 337 338 339 339 337
343 344 345 345 343 343 346 348 348 348 349 348 348 349 347 346 346 346 346 345 345 345 346 345 345 343 342 340 340 341 340 340 339 338 337 337 337 340 340 341 340 342 342 342 342 343 343 342 342 340 339 339 336 337 338 338 338 339 339 340 341 341 338 337 335 334 331 329 328 327 328 329 329 329 335 337 336 337 336 335 336 338 338 338 337
342 344 346 344 343 342 346 347 348 347 348 348 347 347 347 346 346 345 346 345 345 345 345 345 344 344 341 340 340 341 340 339 338 338 337 336 337 339 342 342 342 341 341 342 344 343 342 342 341 341 339 338 336 337 337 338 338 339 339 340 341 341 341 338 336 333 328 329 329 329 331 334 330 330 335 338 337 337 336 336 337 337 339 338 339
343 344 346 345 343 341 347 347 348 348 348 347 347 347 347 346 345 345 345 346 345 345 345 345 345 343 342 340 340 339 340 339 338 338 338 337 337 339 339 339 338 339 338 339 341 341 340 340 340 339 339 337 336 337 337 337 338 338 338 339 340 342 339 337 334 330 330 330 329 329 334 336 329 331 337 338 338 337 338 338 337 338 338 339 339
343 344 346 344 343 342 347 347 348 348 348 348 347 347 346 346 345 345 345 345 345 345 345 345 345 343 341 339 338 339 339 338 338 338 337 337 337 338 339 339 339 340 340 340 339 340 339 339 338 337 338 337 337 336 336 336 336 336 336 338 340 340 338 336 332 330 331 332 332 332 332 333 334 337 340 340 339 340 338 338 338 339 339 338 337
342 345 345 344 344 340 346 347 347 348 348 347 347 346 346 346 345 345 345 345 345 345 345 345 344 343 341 339 338 339 339 338 338 337 337 336 336 337 337 337 338 338 338 338 337 336 336 336 336 336 337 337 336 335 335 335 335 335 336 336 338 338 335 333 330 331 331 332 332 332 332 332 333 338 339 340 340 340 339 339 338 338 339 338 338
343 345 345 345 344 345 340 344 347 347 347 347 347 347 346 346 345 345 345 345 345 345 345 344 344 344 340 337 337 338 338 338 337 337 336 336 337 338 338 337 337 337 335 335 334 334 334 335 334 335 336 336 335 334 334 334 334 334 335 335 335 335 332 331 331 329 330 331 332 332 332 333 334 338 339 339 339 338 339 338 338 338 338 337 337
343 344 344 345 343 343 342 340 344 344 346 347 347 347 346 346 345 345 345 345 345 344 344 344 344 343 339 337 337 337 337 337 336 336 336 336 335 335 335 335 334 334 334 333 332 335 335 335 334 335 335 334 333 333 333 333 333 334 334 335 334 330 328 326 326 326 328 330 331 331 332 332 337 338 339 338 338 340 339 338 337 337 336 335 334
345 344 343 344 344 343 342 340 336 338 343 345 346 346 347 346 347 346 345 345 345 344 344 343 344 343 339 336 336 337 337 336 335 335 335 335 335 335 334 335 333 333 333 333 333 332 331 332 332 333 333 333 332 332 332 332 332 333 333 333 330 329 326 325 322 323 324 325 326 329 330 332 336 338 338 336 338 338 337 336 336 336 335 334 334
345 344 343 343 344 344 343 342 337 331 334 339 341 343 345 346 346 346 345 345 344 344 343 343 343 341 338 336 335 337 337 336 335 335 335 334 334 334 333 333 333 333 333 333 332 331 331 331 332 332 332 332 332 331 331 331 331 331 332 329 328 327 325 323 321 321 322 323 324 326 329 330 334 336 339 339 338 336 335 335 335 334 333 333 333
344 344 342 343 343 343 343 343 339 339 341 335 335 339 342 345 345 344 344 344 344 344 343 343 341 339 337 336 335 336 336 335 335 335 334 333 333 333 333 333 333 333 332 332 332 330 329 329 331 332 332 331 330 330 330 330 330 331 331 328 327 326 325 324 320 320 321 323 322 325 327 334 334 335 336 336 337 335 334 335 335 333 332 331 330
341 341 342 342 343 343 343 343 342 342 343 342 342 338 336 340 342 341 342 343 343 343 342 339 338 337 335 332 331 330 330 332 335 334 334 332 331 332 332 332 332 332 332 331 331 330 328 330 330 331 330 330 329 329 329 328 329 330 329 327 326 324 323 322 321 322 322 322 324 325 326 332 334 334 334 335 335 333 334 334 334 333 331 331 330
338 340 341 341 343 343 342 343 343 343 342 342 341 341 332 333 338 339 339 340 340 340 338 336 333 330 329 327 326 325 324 324 324 326 329 329 328 326 329 330 332 332 331 331 330 329 328 329 330 329 328 327 327 326 326 327 327 328 327 326 324 323 322 322 321 321 321 322 323 324 330 331 331 331 333 334 334 333 331 331 331 331 331 331 329
338 338 338 340 341 341 340 341 342 343 342 342 342 342 336 331 333 333 334 336 335 335 334 327 325 325 325 324 324 324 323 323 324 324 324 324 323 324 329 330 330 330 330 329 329 328 328 329 328 326 325 323 322 322 323 324 326 327 326 323 321 321 320 320 320 320 320 321 322 325 330 331 332 331 331 331 330 331 332 331 329 327 327 328 328
331 334 337 340 339 340 339 341 341 341 342 342 342 342 337 336 340 338 337 332 328 327 331 332 330 328 323 325 325 323 324 324 323 325 323 323 322 321 324 328 329 329 328 328 329 328 327 327 326 324 323 322 320 314 315 318 321 322 320 319 320 319 319 319 318 317 317 319 321 326 331 332 331 332 333 332 333 332 331 329 326 326 326 326 325
331 331 333 337 339 339 340 340 341 341 340 340 341 341 340 341 340 339 338 331 332 335 337 334 334 329 327 329 327 327 326 324 322 323 322 320 320 320 322 325 327 327 327 327 327 326 326 324 323 322 322 321 314 311 312 312 313 317 315 316 317 318 318 317 316 315 315 318 322 329 331 331 331 333 333 332 333 331 330 329 328 327 326 325 324
331 332 333 337 337 337 338 339 340 341 340 340 341 341 341 341 340 340 338 338 337 338 337 337 336 332 332 333 332 331 325 321 321 321 321 319 318 318 320 321 322 322 322 322 324 323 322 321 321 322 316 313 309 310 309 309 310 312 313 313 315 317 316 315 314 313 314 317 322 328 331 331 332 332 332 333 331 329 326 326 326 326 327 326 325
330 332 333 334 335 337 339 339 339 339 339 339 340 339 340 340 339 339 340 339 337 337 337 337 337 336 335 333 335 328 324 321 319 319 318 318 317 316 315 313 313 312 314 312 311 312 312 312 313 312 310 310 308 308 309 308 308 309 310 311 313 314 315 314 313 312 312 313 317 326 330 331 332 332 332 332 330 327 326 325 324 324 323 323 324
329 330 330 332 333 335 336 338 337 339 339 338 338 338 339 338 338 338 337 338 338 337 337 336 336 336 336 334 335 330 324 321 319 319 317 317 315 314 312 311 310 310 309 307 307 309 310 312 311 309 307 307 306 306 306 306 306 307 308 310 311 311 313 312 311 311 311 312 314 322 328 330 331 331 332 332 331 328 327 326 325 324 324 323 322
327 330 331 331 333 334 334 335 335 337 337 337 337 337 336 338 338 338 337 337 337 336 335 336 336 335 336 334 333 330 325 322 321 320 317 315 313 312 311 311 311 309 307 308 310 313 312 310 308 307 306 305 305 305 305 305 306 306 306 307 308 309 310 311 311 310 310 311 312 317 325 329 329 330 330 332 331 330 329 328 327 327 325 324 321
326 329 330 331 331 333 333 334 335 335 335 336 336 336 336 337 337 336 337 335 336 336 336 336 336 335 334 333 332 331 327 324 324 322 318 316 315 315 313 313 312 311 311 314 314 312 310 309 308 306 305 304 304 303 303 304 304 305 305 306 307 307 307 309 311 310 310 309 310 314 320 326 328 328 329 331 330 328 327 326 326 326 325 324 321
326 327 328 331 332 332 332 332 333 334 334 335 335 333 332 333 336 337 336 333 336 336 336 336 336 334 335 334 333 331 328 327 326 325 321 319 318 317 315 314 314 313 315 314 313 311 310 308 307 305 304 303 301 301 301 301 302 303 304 304 304 305 306 307 309 310 310 308 307 310 315 322 325 326 326 327 328 328 327 325 323 321 321 320 320
326 327 327 328 332 333 333 332 332 334 333 333 332 332 332 332 333 335 337 335 336 336 336 336 335 335 334 333 332 332 330 328 327 327 325 324 324 318 316 315 314 314 315 313 312 310 309 308 307 305 304 302 300 300 299 299 300 300 300 302 302 303 303 304 306 308 309 308 306 306 311 315 320 321 322 322 323 323 323 323 322 323 324 323 321
326 327 328 327 328 330 330 329 331 329 330 331 331 333 333 333 332 330 332 336 336 336 336 335 335 334 334 334 333 332 331 328 328 328 327 327 325 318 316 316 315 315 315 313 312 310 308 307 306 304 302 300 299 299 298 298 297 298 298 300 300 300 300 300 301 305 306 305 305 304 305 310 314 318 320 320 320 320 321 320 321 320 321 320 321
326 326 327 328 328 329 328 328 330 330 328 330 329 329 330 331 331 331 331 333 336 334 335 336 334 334 334 334 334 333 331 331 329 329 327 327 325 319 317 316 315 314 314 312 311 310 308 307 306 303 301 299 298 297 297 296 295 296 296 296 298 298 298 298 298 299 301 302 303 302 302 303 307 310 315 317 318 318 318 319 319 318 320 319 320
327 327 326 327 327 326 327 327 329 330 328 328 329 329 329 331 330 331 331 333 332 334 335 335 334 334 334 335 334 333 331 331 330 329 326 327 326 321 319 317 315 315 313 312 310 309 307 305 304 302 300 298 297 297 297 295 294 294 294 294 295 295 296 296 295 295 295 296 298 299 300 300 300 303 307 312 316 317 317 317 316 316 316 316 317
325 325 327 327 328 328 328 328 328 329 328 328 327 328 329 329 331 332 331 331 330 329 332 334 334 335 335 335 334 333 331 332 332 331 329 327 326 323 321 317 315 314 312 311 309 307 305 303 301 300 300 297 296 295 294 293 292 292 293 293 294 294 294 294 293 294 293 293 293 294 294 296 296 297 298 305 310 314 316 316 316 315 315 314 314
323 324 326 327 327 327 328 328 327 328 327 328 327 327 327 326 325 328 331 330 330 330 328 332 334 334 335 335 334 333 332 332 333 332 331 328 327 325 321 318 316 313 312 311 308 307 305 303 301 299 297 296 295 295 294 293 292 293 292 293 293 293 293 293 293 293 293 293 293 293 293 291 291 293 294 294 302 309 312 314 314 314 314 313 313
324 324 325 326 326 327 326 326 327 327 327 327 327 328 325 323 324 322 326 330 329 329 330 331 332 333 333 333 334 334 333 332 332 332 331 329 327 325 322 319 317 314 311 311 309 307 306 304 302 300 297 295 295 294 293 292 292 292 291 292 292 293 292 292 293 293 293 293 292 292 292 292 291 290 293 290 294 302 308 310 312 312 312 312 313
324 324 324 324 326 326 325 325 326 327 327 327 326 325 324 322 323 323 325 325 328 328 330 332 332 332 331 332 334 334 333 333 333 332 331 329 326 325 323 321 318 315 312 311 309 307 305 303 301 299 297 295 295 293 293 292 293 292 292 291 291 292 291 292 291 292 294 291 291 291 292 291 293 295 289 288 290 293 301 305 307 309 310 311 312
322 322 323 324 325 325 324 325 326 326 326 325 324 323 322 321 320 320 320 321 323 326 327 328 329 329 329 330 331 332 332 333 333 332 331 330 327 325 323 321 317 315 312 310 308 307 305 302 299 298 297 296 295 294 293 293 294 293 291 291 291 290 290 290 290 293 291 291 291 290 290 291 291 290 291 290 290 291 292 296 300 303 305 308 310
319 320 321 323 323 323 322 321 322 323 323 321 321 321 320 318 319 317 317 318 320 321 325 325 325 327 329 329 329 331 331 333 333 330 329 328 327 325 322 320 316 315 312 309 307 306 304 302 299 298 298 296 295 294 293 294 294 293 291 290 290 290 290 291 291 290 289 290 291 292 292 291 290 290 290 290 289 289 289 288 289 291 296 303 306
316 318 318 320 321 321 320 320 320 321 321 320 319 318 316 316 315 313 314 315 318 318 322 325 324 325 327 330 330 330 329 330 332 331 329 327 327 325 322 320 317 315 312 309 306 305 303 300 299 298 297 295 294 294 294 292 291 290 290 289 289 289 289 290 289 289 289 289 289 289 289 289 289 289 290 289 290 289 289 288 290 289 292 297 300
313 314 315 317 318 319 319 318 319 320 319 318 316 316 315 313 312 313 314 314 317 317 320 322 324 323 325 329 330 329 329 329 329 329 329 325 326 324 322 320 318 315 312 309 307 306 304 301 299 298 296 294 294 293 292 292 289 288 288 287 287 288 289 288 288 288 288 288 288 288 288 289 288 288 288 289 288 288 287 288 287 288 289 289 293
311 312 313 315 316 317 318 318 318 319 318 317 316 315 315 315 314 313 313 313 315 316 317 319 321 324 326 327 327 328 329 328 328 329 326 325 323 323 322 320 317 315 313 310 308 305 303 300 298 297 297 295 293 293 292 291 289 287 286 286 285 286 287 286 287 287 287 288 288 288 288 288 288 288 288 288 287 287 287 287 287 288 288 289 289
310 311 311 312 313 315 316 316 317 317 317 316 315 315 315 314 314 311 314 310 312 314 315 318 318 321 323 325 326 327 327 327 326 325 324 323 322 321 321 320 318 315 311 309 307 304 302 300 298 297 295 296 294 294 292 292 288 288 288 285 283 283 285 285 286 286 287 288 288 288 288 288 289 288 288 287 286 286 287 287 287 287 288 288 289
307 307 309 311 313 313 314 315 315 315 315 314 313 314 314 313 312 313 312 313 312 312 314 316 318 319 320 322 323 325 326 326 326 325 323 322 321 320 320 319 317 314 312 308 306 304 301 300 300 299 297 293 292 292 293 293 291 288 284 286 284 284 280 281 281 284 285 286 287 287 288 288 288 287 287 287 286 286 286 287 287 288 288 288 288
306 306 307 310 312 313 313 314 314 314 314 313 313 313 312 311 312 311 309 307 307 309 309 309 314 319 319 319 320 320 322 324 324 324 322 321 321 320 318 318 317 315 313 309 306 304 302 300 300 299 297 295 292 292 292 294 291 292 290 287 285 285 282 282 282 282 284 285 286 286 287 287 287 287 286 286 286 286 286 286 287 287 287 287 287
305 306 307 308 309 310 312 312 312 312 312 312 313 313 311 311 310 308 307 306 306 307 309 311 311 313 316 317 317 317 318 320 322 323 322 320 320 319 318 317 316 314 313 311 308 306 302 300 300 299 298 297 294 292 291 293 294 292 293 297 290 285 284 281 282 278 283 284 285 285 286 286 286 286 286 286 286 286 286 286 286 286 287 287 287
304 305 306 307 308 310 311 312 312 312 313 312 313 312 311 311 310 309 309 308 308 308 307 309 311 310 312 313 313 314 316 317 318 320 321 320 319 319 318 317 316 314 312 311 309 306 304 302 301 300 299 298 296 292 291 291 294 293 294 298 295 294 288 283 280 278 277 281 284 284 284 286 286 286 286 286 286 285 286 286 286 287 287 288 287
304 306 307 307 308 308 310 311 311 311 312 313 312 312 311 310 309 308 308 308 308 307 308 310 313 311 312 310 310 311 313 313 315 316 318 318 318 318 317 316 315 314 311 311 309 307 305 303 301 301 300 299 297 295 292 292 292 293 294 296 294 294 288 289 286 281 279 279 280 283 283 284 285 285 286 286 286 285 285 285 286 285 286 287 286
305 305 306 306 307 307 309 309 310 310 311 311 312 311 310 310 309 308 307 307 307 308 309 310 311 311 311 309 309 309 309 309 310 313 314 316 315 316 316 315 315 314 310 311 309 307 304 302 301 300 300 301 299 299 295 294 294 295 293 295 295 294 289 289 287 286 280 279 279 279 280 283 283 284 285 286 286 285 286 286 285 285 286 286 286
304 305 305 306 306 306 308 308 308 309 310 310 311 310 309 309 309 307 307 306 307 307 308 309 309 309 310 309 309 307 308 307 307 307 309 311 313 315 315 315 314 313 309 310 308 306 304 302 301 301 301 300 300 299 297 296 296 297 295 295 294 292 290 288 287 287 284 282 280 279 280 280 279 281 284 284 285 286 286 286 284 285 285 286 285
303 304 305 305 305 306 307 307 308 308 309 310 310 310 309 309 308 307 307 306 307 307 308 308 308 307 309 310 308 307 307 306 305 304 305 306 308 310 313 314 314 311 309 310 307 305 304 303 302 302 301 301 300 300 299 299 297 297 296 296 295 294 290 287 286 287 283 281 280 280 280 280 279 280 282 284 285 285 285 284 284 285 285 285 285
Wind_Speed
7 9 5 5 5 6 7 11 11 11 11 11 11 10 10 10 9 6 12 13 13 13 13 15 15 15 15 15 15 14 14 13 14 14 13 13 13 15 16 16 16 16 19 19 20 20 21 22 21 22 21 21 22 21 21 21 20 19 19 19 19 19 18 21 22 22 23 25 25 23 23 22 23 23 23 23 23 22 20 21 17 14 11 17 24
10 8 6 5 8 8 11 10 11 11 10 11 12 12 11 10 8 6 12 13 13 13 14 14 15 15 15 15 15 15 14 13 14 14 13 13 13 15 15 15 16 16 16 19 20 21 22 22 21 21 21 20 21 21 20 19 19 18 18 17 18 18 19 17 19 19 19 21 23 24 23 24 24 23 23 23 24 25 20 22 21 12 10 22 23
10 9 6 7 10 10 10 11 12 11 10 11 11 11 10 9 8 9 12 13 13 13 13 14 15 15 14 15 15 15 14 14 13 13 14 14 13 14 14 14 17 17 18 19 20 21 20 20 21 21 20 20 20 19 19 19 18 18 17 17 16 16 17 17 15 15 16 19 20 19 20 24 24 24 23 22 24 24 21 22 22 20 14 23 22
11 8 7 8 10 10 11 11 11 12 11 10 10 11 10 11 12 11 12 13 13 13 13 14 14 15 15 15 15 15 14 14 13 13 15 14 14 15 14 14 17 17 18 19 20 21 21 21 20 20 19 20 19 19 18 18 18 17 17 16 15 14 14 14 17 17 17 17 16 14 9 9 14 23 23 23 23 24 21 22 24 26 26 24 25
12 9 8 7 7 9 11 11 11 11 12 11 11 11 11 12 12 12 12 12 13 13 13 14 14 15 14 14 15 15 15 15 14 14 14 13 14 14 13 14 18 19 18 19 20 21 20 20 19 20 20 20 19 18 17 17 17 17 16 15 14 13 11 9 15 17 18 18 17 12 8 8 10 21 22 24 24 21 20 23 23 24 24 26 25
10 9 8 7 6 6 10 12 12 12 12 12 13 12 12 12 12 12 12 12 13 13 13 14 14 14 15 15 14 14 15 14 14 15 14 14 14 14 13 17 17 17 18 19 20 19 19 19 19 20 20 19 19 17 16 16 16 15 14 14 13 12 11 10 12 17 17 16 14 9 9 9 8 11 24 23 24 22 22 24 24 23 24 25 25
12 8 8 8 6 5 7 11 12 13 13 12 11 12 11 11 12 12 12 12 13 12 13 14 14 14 14 15 15 15 14 14 14 14 14 14 14 13 16 18 17 17 18 19 20 19 19 19 19 19 20 19 18 16 15 15 15 14 14 13 12 11 14 14 17 17 15 9 7 8 8 9 8 7 22 22 22 23 24 23 23 23 24 24 24
8 8 9 8 7 6 8 10 11 12 12 12 11 11 11 11 11 12 12 11 12 12 13 13 14 14 14 15 14 15 15 15 14 14 14 14 14 13 15 15 16 16 16 17 17 17 18 19 19 20 19 18 17 16 15 14 13 13 13 13 11 9 12 19 17 14 13 8 7 7 8 9 9 8 20 21 22 22 23 23 22 23 22 22 17
8 8 9 9 7 9 9 9 11 11 12 12 11 10 11 11 10 12 12 11 12 12 13 13 14 14 14 15 14 14 14 15 15 14 13 13 13 14 15 14 15 16 16 16 17 18 18 19 20 19 18 18 16 15 14 14 14 14 14 13 11 9 17 16 16 14 10 8 7 7 9 8 7 8 18 22 22 22 22 18 18 22 23 20 21
10 8 9 8 7 9 9 9 10 11 13 12 11 11 11 10 10 11 12 11 11 12 12 13 13 14 14 14 14 14 13 14 14 14 13 12 13 15 17 16 15 15 16 17 18 19 19 20 19 19 18 18 16 15 14 14 15 16 16 15 13 11 12 13 12 10 8 9 10 8 8 10 7 8 16 20 21 21 18 17 15 17 17 22 25
8 8 9 8 9 10 10 10 9 10 12 12 12 11 11 10 10 11 12 11 12 12 12 13 13 13 13 14 14 14 13 13 14 13 13 12 14 14 14 13 14 14 15 16 16 17 18 18 18 18 18 18 16 15 14 15 15 16 16 16 15 13 17 16 12 8 9 8 6 5 8 10 6 7 18 21 20 21 19 19 21 21 23 24 24
9 8 8 7 9 11 10 9 9 10 11 12 12 11 10 10 10 11 12 11 11 12 13 14 13 13 13 14 14 14 13 13 13 13 12 12 13 14 14 14 14 15 15 16 16 17 16 17 18 18 18 17 16 15 15 15 16 16 15 14 12 15 17 12 8 7 8 9 9 10 10 9 9 13 20 20 21 22 22 21 22 23 24 23 23
8 8 8 8 7 9 10 9 8 9 10 12 12 11 10 10 9 11 11 11 12 12 13 13 14 14 13 13 14 14 13 13 13 13 12 12 13 13 13 13 14 14 15 15 15 16 17 17 17 17 17 17 15 15 15 15 15 15 15 14 13 17 13 14 10 11 10 10 9 9 8 6 7 17 19 21 21 21 22 22 23 24 24 25 25
10 10 8 7 6 7 9 9 9 8 8 9 10 10 9 9 9 9 10 11 12 12 13 14 14 14 13 13 13 14 13 13 13 12 12 11 14 15 14 14 15 15 15 15 16 16 17 17 17 16 16 15 15 15 15 15 15 15 14 14 10 10 15 11 10 9 11 11 10 10 8 7 9 19 21 21 21 22 23 23 26 27 26 25 26
9 8 8 8 7 6 8 9 8 8 7 8 9 10 9 9 8 9 10 11 12 12 13 13 14 14 13 13 13 14 14 13 13 12 12 12 12 13 13 13 14 14 14 15 16 17 17 16 16 15 15 15 15 15 15 14 14 15 15 14 15 17 13 7 6 7 8 9 9 10 8 7 17 20 22 22 22 23 24 25 26 27 27 27 26
10 8 8 8 7 6 5 7 10 8 7 7 8 8 8 8 7 8 10 11 12 12 13 13 13 14 14 13 13 14 14 13 13 13 12 12 13 13 13 13 14 14 15 14 15 16 15 15 16 15 14 15 15 15 14 14 14 14 14 12 16 15 15 10 8 9 8 7 6 7 8 10 19 21 22 23 24 23 24 25 26 25 26 25 24
9 8 7 9 9 7 6 5 6 9 7 7 7 8 8 7 7 8 8 9 11 12 12 13 14 14 14 13 12 12 13 13 13 13 13 13 13 13 13 14 14 14 14 15 15 15 15 15 15 15 15 15 15 15 14 14 13 12 11 12 14 17 16 12 8 7 7 7 6 6 7 8 18 21 24 24 25 23 23 24 24 24 24 25 26
8 7 6 8 8 8 7 6 6 6 5 6 7 7 7 7 7 7 8 8 10 11 11 12 14 14 13 11 10 11 12 13 13 13 14 13 13 12 13 13 14 14 14 14 15 15 15 15 15 14 15 15 15 14 14 13 12 10 10 11 10 12 12 9 6 6 6 6 6 6 6 14 21 21 23 22 23 23 24 25 25 24 23 23 24
8 7 5 7 7 6 8 7 6 5 6 5 4 6 8 8 9 7 7 9 9 10 11 11 12 12 13 12 12 12 11 11 12 12 11 11 11 12 14 14 14 15 15 15 15 15 15 14 15 15 15 15 15 14 13 12 11 10 10 13 15 13 12 8 7 7 6 6 6 6 7 13 20 21 21 22 22 22 24 24 25 24 25 24 24
4 5 6 5 6 7 5 7 7 6 6 6 6 6 5 9 10 9 7 9 10 11 11 11 12 12 13 14 13 11 10 9 11 9 11 12 11 9 13 13 14 15 15 15 15 15 14 15 14 15 15 15 14 13 12 12 11 10 10 13 13 13 9 6 6 6 6 6 6 6 10 13 15 17 19 21 22 21 22 21 23 24 24 24 23
0 3 5 5 5 5 5 5 5 6 6 6 6 6 6 8 8 10 10 10 11 12 12 12 11 11 11 12 11 8 6 6 6 6 9 8 10 11 12 14 15 14 15 15 15 14 15 14 15 16 15 15 12 11 11 11 10 10 10 12 12 8 7 7 7 6 6 5 3 5 13 15 17 18 17 18 20 20 22 22 23 22 22 22 23
2 1 3 4 6 5 7 6 6 6 5 5 4 5 6 7 7 7 7 9 9 10 9 8 8 7 11 9 7 7 5 5 6 7 6 7 9 11 12 13 15 13 14 15 15 15 15 16 16 15 13 10 9 6 6 8 11 12 12 11 8 6 7 7 7 6 6 5 4 6 13 15 18 19 20 22 21 23 22 23 21 21 21 21 21
5 3 3 3 4 4 5 7 7 7 6 5 5 6 7 6 6 6 6 8 9 8 7 7 6 7 7 5 6 6 7 6 4 6 6 9 9 10 11 12 13 13 14 15 15 15 15 14 13 11 9 7 5 4 4 5 6 9 9 7 6 6 6 7 6 6 6 5 4 10 12 16 18 19 21 22 22 23 23 22 21 21 20 20 20
7 6 5 4 4 5 4 4 7 7 7 6 6 5 7 6 6 6 6 6 7 7 7 6 6 6 6 4 4 6 8 7 12 13 9 6 7 10 11 11 11 11 12 9 11 13 14 13 10 6 5 4 4 6 6 6 6 5 6 6 6 6 7 6 6 6 6 7 6 12 13 16 18 19 20 23 23 20 19 20 20 20 21 21 21
6 7 6 6 5 5 6 5 4 6 6 6 7 6 6 6 6 6 7 6 6 6 7 6 6 6 5 3 7 7 7 7 8 6 6 5 5 5 5 5 5 5 7 5 5 5 5 3 2 5 5 4 5 5 5 6 6 6 6 6 6 6 7 7 7 7 7 7 8 10 11 15 17 20 20 22 21 20 20 18 18 19 20 20 21
6 7 6 6 6 4 6 6 4 6 6 5 6 6 6 5 6 6 6 6 7 6 6 6 6 6 5 3 6 7 7 7 8 8 7 6 5 5 5 4 4 4 4 6 4 3 3 2 4 5 6 6 6 6 6 6 6 6 6 6 6 6 6 6 6 6 6 7 9 11 12 14 18 19 20 20 20 20 21 21 20 19 19 19 20
6 7 7 6 6 6 6 6 5 6 7 6 5 6 6 5 6 6 7 6 6 6 6 6 6 6 5 5 6 6 7 7 7 8 8 7 6 6 6 5 4 5 6 6 4 3 4 6 6 5 5 6 6 6 6 6 6 6 6 6 6 6 6 6 6 6 6 7 9 16 10 14 17 19 21 22 22 21 21 22 23 22 21 22 20
5 7 8 7 8 10 7 7 6 6 6 5 4 5 5 6 7 7 6 7 7 7 7 7 6 7 6 6 6 7 8 7 7 8 8 7 7 6 7 7 6 7 6 6 5 6 6 6 6 5 5 4 5 5 6 5 6 5 5 5 6 6 6 6 6 7 7 7 8 15 13 12 15 19 18 18 19 18 19 19 19 20 21 21 20
7 8 8 10 10 9 7 8 7 7 6 6 6 6 4 3 4 7 6 7 6 7 7 6 6 6 6 7 6 6 6 7 7 7 8 8 8 7 7 6 7 7 6 6 6 6 7 7 6 6 6 6 6 5 6 5 6 6 5 5 5 5 6 6 6 6 6 6 7 13 17 14 14 15 17 19 20 20 19 19 17 17 16 16 18
9 8 8 8 10 11 11 10 8 8 8 7 6 6 5 4 4 5 6 6 6 6 6 6 6 6 6 5 7 6 6 7 7 6 8 8 8 8 8 7 6 6 6 6 6 6 7 7 7 7 6 6 5 6 6 6 6 5 5 5 5 5 5 6 6 6 6 6 6 9 18 17 16 17 16 15 14 15 16 17 17 18 19 19 19
9 9 8 7 7 11 11 9 8 6 7 8 6 7 7 7 6 3 2 6 6 7 7 6 6 6 6 7 6 7 6 6 7 6 6 6 6 8 8 7 6 6 6 6 6 6 5 6 7 7 7 7 6 6 6 6 6 5 4 5 6 6 6 6 6 5 6 6 6 6 11 18 20 16 15 15 15 14 14 14 15 15 15 16 16
10 9 8 7 7 10 10 9 9 8 7 8 7 8 8 8 7 6 5 3 6 5 6 6 6 6 6 6 6 7 7 6 7 7 6 6 6 7 7 7 7 7 6 6 6 5 6 6 6 6 6 6 7 6 6 6 6 5 5 5 5 6 6 6 6 5 5 5 6 6 7 9 15 19 16 14 15 14 14 14 14 14 15 15 15
6 9 9 8 7 6 9 9 9 9 8 8 7 7 6 8 7 7 7 6 5 6 6 7 6 6 6 7 7 6 8 7 6 8 7 6 6 7 5 6 6 6 7 7 5 5 5 6 7 7 6 6 7 7 6 6 6 6 6 5 6 6 5 6 6 5 4 4 6 6 6 7 7 11 16 18 15 15 15 15 14 13 12 13 13
6 7 9 10 8 5 6 6 8 9 8 7 7 7 6 7 8 7 7 8 7 5 6 6 7 7 7 8 7 7 6 8 7 8 7 6 7 7 6 5 6 6 7 8 6 5 5 6 7 7 6 7 7 6 7 7 6 5 5 4 6 6 6 5 5 5 4 5 5 5 6 5 6 6 7 12 15 15 16 16 14 13 12 11 11
6 6 10 11 10 9 8 8 9 9 8 8 7 7 6 7 6 8 8 7 7 7 5 7 7 7 8 8 8 7 7 7 9 8 7 7 8 8 7 6 6 5 7 7 7 5 5 6 6 7 6 6 6 6 7 7 7 6 5 5 6 6 5 5 5 5 5 5 6 5 5 5 6 5 5 6 9 15 17 17 16 14 12 11 10
11 10 9 9 11 9 9 8 10 10 10 11 8 7 6 7 8 7 6 8 7 7 7 5 6 7 7 7 9 8 8 7 8 8 8 7 8 8 8 7 7 6 6 7 7 7 5 5 5 7 8 6 8 6 6 7 7 6 5 5 5 5 5 6 5 5 5 6 6 5 5 5 5 6 5 6 6 9 16 16 17 16 14 12 11
10 10 10 9 10 11 11 11 11 12 10 10 9 7 6 5 6 6 7 6 8 7 6 6 5 6 7 7 8 9 8 9 7 9 9 8 7 8 8 9 8 7 7 6 7 6 7 6 6 5 6 8 8 9 6 7 7 6 6 5 5 5 5 5 4 4 4 5 4 4 4 4 4 5 4 6 6 6 11 16 15 16 14 14 13
10 11 11 12 12 11 11 11 9 11 10 9 8 7 6 5 5 5 5 7 7 7 7 7 6 6 6 7 8 9 9 9 8 8 8 9 9 9 8 10 9 8 8 7 7 7 5 6 8 5 7 7 8 10 9 7 6 6 6 6 6 6 5 4 4 4 6 4 4 4 4 4 4 4 5 4 3 5 5 9 12 12 13 14 15
9 11 10 10 10 9 9 10 9 9 8 7 6 5 4 4 4 4 4 4 5 5 7 7 6 6 6 6 7 8 9 10 8 8 8 8 9 9 9 10 9 9 9 8 8 8 7 6 8 8 5 4 6 8 10 8 7 6 6 5 5 4 4 4 5 5 5 4 4 4 4 4 4 4 4 4 4 4 5 5 5 5 7 14 14
9 9 10 10 10 9 8 9 9 9 7 6 7 7 6 7 7 4 5 5 4 6 5 7 6 6 6 8 7 7 8 10 9 8 9 8 8 9 10 11 10 10 9 9 9 9 11 10 7 10 9 5 4 6 8 10 8 8 6 6 5 5 4 4 4 4 3 3 3 3 4 3 4 4 4 4 4 4 4 4 4 5 4 8 14
8 9 10 10 11 12 11 12 10 9 9 9 9 9 9 7 5 8 9 7 6 5 5 5 7 6 6 7 9 7 8 9 9 9 9 9 9 8 10 10 10 11 11 11 12 13 12 10 9 7 12 9 5 6 6 9 11 6 6 5 4 4 3 4 4 3 3 2 3 4 3 4 3 4 3 3 4 3 4 4 3 3 4 4 7
10 11 12 13 12 11 12 11 10 10 11 11 10 10 9 10 10 10 8 7 7 7 7 6 6 6 7 7 6 8 9 9 8 8 9 10 9 9 10 11 10 8 9 10 10 8 9 8 9 7 4 10 8 9 9 10 3 7 8 4 2 2 2 3 3 2 2 2 2 3 3 3 4 4 3 3 3 4 4 4 4 4 4 5 6
11 12 11 9 9 10 10 10 10 11 10 10 10 10 8 7 7 5 8 4 3 4 4 5 4 6 6 7 7 7 8 8 8 7 8 9 10 10 9 10 11 9 8 7 9 9 9 10 11 11 9 2 4 7 11 7 8 6 5 7 2 2 1 0 1 2 3 1 2 2 2 4 4 4 4 4 4 4 3 3 4 4 3 4 5
6 6 7 10 9 10 9 10 10 10 10 9 9 7 6 5 5 4 4 5 3 3 4 5 6 6 7 6 6 7 8 8 9 8 7 9 10 10 9 9 10 10 11 10 10 10 10 10 9 6 8 10 7 8 8 5 9 13 5 3 4 4 1 6 3 2 4 4 4 3 2 3 3 4 5 5 3 3 3 3 3 3 3 3 4
7 8 8 9 8 10 9 9 8 9 8 7 7 7 7 6 5 4 4 4 3 4 5 6 7 8 7 8 8 5 6 8 9 9 8 9 9 10 10 10 10 11 10 11 11 12 13 12 13 12 13 12 10 7 9 6 8 6 10 7 2 2 7 3 7 2 3 2 3 4 3 4 3 3 4 4 4 4 3 3 3 3 3 3 4
8 8 8 8 6 6 7 6 6 7 7 7 8 8 8 8 8 8 7 6 7 7 11 11 8 8 10 6 6 7 6 5 7 9 9 8 9 10 10 10 10 10 10 10 10 10 12 13 13 12 12 10 13 10 10 6 7 8 4 3 6 6 7 5 8 5 1 3 3 3 4 4 4 3 4 4 4 3 3 3 3 2 2 2 3
6 5 5 6 6 6 7 7 7 7 7 7 9 8 8 8 10 10 8 9 10 7 4 3 4 4 3 5 6 5 6 6 6 7 8 9 9 10 11 11 11 11 11 10 11 13 12 13 12 12 12 10 10 12 13 12 4 7 7 3 3 1 7 10 6 6 2 2 4 3 3 3 4 4 4 4 4 4 3 3 3 3 2 1 2
6 6 6 6 7 6 6 6 5 6 5 6 9 8 8 7 7 7 8 8 8 6 6 5 4 4 6 6 5 6 6 5 6 6 7 8 9 9 10 11 11 10 10 10 12 11 11 10 13 15 13 11 13 13 13 12 13 10 9 5 2 2 9 2 6 9 6 7 5 2 2 4 2 3 5 5 5 5 4 3 4 3 2 1 1
6 7 6 6 5 5 5 5 6 5 5 6 8 7 7 8 8 7 7 5 5 5 5 7 7 7 8 6 6 6 6 5 5 5 6 7 8 9 9 10 10 10 10 9 9 10 13 13 12 11 10 9 10 9 11 12 10 8 9 5 5 4 6 2 7 4 5 4 1 6 4 1 2 3 4 5 5 5 5 5 4 4 4 2 1
6 6 5 5 5 5 5 6 6 5 6 6 8 8 7 8 8 8 8 6 5 5 5 7 8 8 9 9 7 7 6 6 5 4 5 5 7 8 10 11 10 10 10 10 10 10 10 10 11 11 9 9 8 9 11 10 11 7 9 8 8 5 4 3 3 5 2 5 7 9 7 9 8 5 4 5 5 5 5 5 4 4 4 4 3
5 5 5 5 5 5 5 6 6 6 6 7 8 9 8 7 8 8 9 9 8 8 8 7 7 7 9 9 8 7 7 7 5 6 5 5 5 6 9 9 9 9 10 9 9 10 10 11 11 12 9 9 6 8 7 8 8 7 8 8 9 10 9 7 7 5 4 3 4 3 4 6 6 4 5 4 4 4 5 4 5 4 4 4 4
Wind_Direction
138 130 121 120 111 106 115 121 119 119 116 112 104 101 99 99 95 93 90 83 80 76 73 71 73 71 71 72 70 71 72 79 82 80 78 75 76 81 79 76 79 82 83 79 77 76 76 75 72 71 69 67 66 65 64 65 64 62 61 60 60 62 69 75 74 70 69 66 64 64 65 66 64 65 65 65 65 64 64 62 57 54 53 52 53
136 123 122 110 113 110 120 116 116 113 117 115 110 107 107 108 108 108 89 85 82 79 75 73 74 75 72 72 74 75 75 76 83 85 84 82 81 81 82 89 88 84 83 79 76 74 74 74 73 72 70 68 68 66 65 64 64 62 61 58 55 57 62 73 77 74 71 69 66 66 65 65 68 68 68 67 66 65 62 63 61 58 58 61 57
122 118 113 106 109 116 127 120 117 115 119 117 117 115 118 118 119 109 89 87 86 82 76 75 75 78 76 74 77 77 79 79 81 86 88 89 86 87 88 87 82 81 80 77 76 76 75 75 73 71 70 69 68 67 66 65 64 65 63 60 56 54 59 65 70 74 75 73 70 65 62 64 65 67 68 68 67 65 62 64 64 61 61 62 61
120 115 108 105 110 121 125 122 119 119 120 116 116 119 123 125 118 105 96 92 88 84 82 78 77 77 79 80 79 79 79 80 82 86 91 88 85 84 83 86 85 83 82 82 81 80 78 77 75 73 73 72 70 68 67 66 68 68 67 61 56 53 62 66 68 67 64 68 67 62 59 60 64 68 68 67 67 67 66 65 66 66 65 63 62
119 121 120 116 109 117 126 129 127 124 122 122 118 120 120 112 108 104 100 94 91 89 86 82 81 81 79 79 78 80 80 82 84 85 87 91 89 87 89 89 89 90 88 85 83 79 77 77 77 77 77 74 72 70 68 71 73 70 64 56 52 54 56 61 81 75 70 68 65 60 50 51 67 69 70 69 68 67 68 68 67 66 64 63 63
124 129 131 121 115 116 125 126 130 132 129 125 126 127 113 108 106 107 105 102 98 93 86 83 82 82 83 80 80 81 85 85 87 90 90 91 92 94 92 82 77 79 83 85 83 83 81 81 81 80 77 75 73 71 73 74 68 61 53 48 44 50 64 85 89 88 80 72 71 66 55 48 53 69 71 71 70 67 68 68 66 65 65 65 64
129 136 131 125 123 120 126 129 133 135 133 129 122 117 116 110 112 111 109 107 102 95 91 90 89 87 84 83 83 83 83 85 87 91 93 92 91 96 92 88 89 88 84 83 86 85 84 85 84 80 77 75 74 75 75 69 63 56 49 42 38 40 57 56 64 66 68 72 73 74 69 57 50 59 70 71 70 69 68 69 69 68 67 65 64
125 129 132 124 120 128 134 132 133 131 129 127 123 120 118 118 114 115 114 110 106 97 95 93 92 91 90 87 86 86 87 88 89 89 90 90 95 95 93 94 96 94 88 85 85 85 85 83 82 80 77 75 76 76 72 66 60 53 46 39 36 35 58 69 67 68 68 69 72 78 78 71 62 65 70 71 70 69 69 71 70 68 66 65 61
131 132 122 117 122 127 130 130 134 135 128 127 123 120 120 121 121 119 117 112 107 102 97 92 93 93 93 91 90 89 90 93 94 94 91 89 95 91 91 87 85 85 86 88 89 90 90 87 80 79 79 76 75 74 69 64 55 48 42 37 39 68 90 87 79 74 72 71 70 71 75 76 70 73 75 75 75 75 74 70 67 68 70 66 68
137 130 113 121 129 129 127 130 141 142 132 129 128 128 127 126 125 123 121 116 109 108 100 92 91 93 93 93 92 92 92 92 93 93 95 98 97 95 93 97 98 96 96 94 88 85 82 81 80 80 79 78 77 76 70 58 47 38 32 29 34 64 74 70 80 86 84 80 77 76 80 90 89 79 80 81 79 78 81 79 78 77 73 69 65
128 116 115 119 130 131 135 139 145 147 137 133 135 134 133 130 128 128 125 122 118 110 104 97 93 91 92 93 94 94 92 91 93 96 96 97 97 94 96 95 95 92 91 87 86 85 85 85 85 83 80 80 80 75 63 52 44 36 31 27 32 46 64 62 61 60 60 62 59 64 86 87 93 93 85 84 84 80 73 75 78 79 76 70 66
119 121 111 114 126 133 141 141 147 146 138 139 138 137 137 136 131 130 130 128 122 113 105 98 93 91 92 93 95 94 93 91 89 90 92 95 96 92 91 92 95 94 96 91 87 87 88 87 86 85 81 81 80 69 58 49 42 38 35 32 46 63 67 61 49 53 55 50 48 50 46 47 61 74 80 87 85 80 82 81 80 76 73 69 66
116 101 108 121 120 134 139 143 143 144 143 142 140 139 140 137 135 133 130 128 118 112 104 99 95 92 92 94 95 95 93 92 91 92 93 94 99 100 100 97 92 91 88 89 90 90 91 91 89 88 83 80 73 65 57 52 47 41 37 38 52 78 71 64 65 64 58 51 48 44 45 45 71 82 84 87 83 82 79 78 75 72 71 69 67
115 118 125 125 120 127 133 142 143 144 147 143 141 139 139 138 135 130 130 129 122 117 109 105 101 97 96 96 96 96 95 95 94 92 92 96 94 90 93 97 92 90 90 92 95 97 94 90 89 87 83 76 70 63 58 52 46 44 44 44 37 78 86 77 70 72 71 65 58 48 45 53 65 81 83 82 81 78 76 74 72 71 71 70 66
117 128 129 121 128 127 134 138 142 146 148 148 142 143 143 144 139 136 131 129 127 122 114 110 108 105 101 101 101 101 100 100 100 98 96 94 95 102 103 97 97 95 97 99 97 91 90 90 91 88 79 78 72 67 60 52 48 45 41 41 51 56 56 58 56 62 74 78 74 66 57 67 82 81 82 82 80 79 77 75 74 71 69 67 66
127 131 130 129 136 129 135 138 140 148 151 152 147 145 145 143 142 139 134 134 131 126 119 113 109 106 104 104 106 106 106 105 104 104 101 99 97 98 103 102 106 105 100 98 97 95 98 97 96 93 84 80 78 72 64 56 47 43 43 44 61 62 62 62 60 61 62 60 66 76 72 69 77 81 80 80 80 80 79 75 72 72 71 70 67
121 133 142 138 141 149 141 150 145 143 149 149 148 149 143 141 146 136 136 133 132 130 123 117 111 107 106 104 103 104 107 108 108 109 108 106 104 103 104 107 105 107 107 106 102 102 102 102 100 94 86 82 81 75 68 58 49 42 36 57 73 77 73 68 66 67 70 65 62 70 81 76 77 80 80 78 80 80 79 78 76 75 74 73 72
127 142 148 142 143 155 149 148 143 148 144 146 147 147 143 139 133 129 131 130 132 131 124 117 109 105 101 97 95 103 109 110 111 109 109 108 109 110 111 111 111 109 109 106 105 105 106 105 101 91 87 83 79 74 64 57 49 38 30 38 56 70 71 71 70 69 68 64 60 62 71 88 81 78 79 81 81 80 79 77 76 74 73 72 72
136 150 144 145 154 152 153 146 160 161 152 156 151 151 146 137 132 127 133 127 127 128 119 112 110 106 102 95 87 82 80 85 95 99 95 93 93 98 106 109 112 112 112 113 111 109 110 107 102 89 85 82 78 72 64 52 41 29 39 67 68 69 69 69 70 65 63 61 59 61 69 84 93 85 80 79 78 79 77 75 75 75 75 73 71
136 150 138 153 150 151 156 149 162 174 161 165 163 147 148 142 139 133 130 125 123 117 118 114 113 111 109 106 102 94 90 88 87 88 91 93 96 102 108 110 114 115 114 114 114 113 111 108 98 89 84 79 72 64 56 48 37 26 50 62 62 58 53 50 47 49 57 66 73 79 85 83 88 89 85 82 82 81 81 79 78 76 75 75 74
68 149 147 156 148 156 140 148 166 173 160 166 162 149 149 145 143 138 128 117 117 119 115 114 115 118 115 115 111 107 104 99 89 89 87 95 105 106 109 110 112 115 116 117 116 113 113 108 98 93 88 80 69 60 51 43 32 31 53 63 58 59 55 47 42 41 37 26 38 93 97 96 95 92 88 86 87 85 83 83 79 77 76 75 76
146 196 145 146 153 160 163 170 166 182 158 164 145 151 148 155 149 142 128 119 117 123 126 132 132 133 135 132 128 136 118 94 91 92 90 92 93 98 103 108 113 114 117 117 118 118 115 108 103 99 93 87 78 65 54 38 34 33 30 50 62 65 59 53 47 41 35 15 19 98 104 103 101 99 96 94 91 89 88 82 80 79 79 78 78
165 180 167 170 165 164 172 173 174 169 161 147 158 152 160 168 149 152 129 132 138 140 142 145 147 150 164 162 148 153 119 113 97 80 81 83 90 97 102 106 111 113 117 118 118 116 111 108 104 100 95 87 78 71 53 42 28 24 28 38 61 60 63 57 50 43 35 24 19 80 92 105 105 104 104 101 97 93 88 86 88 86 82 81 78
162 172 171 181 189 163 186 193 172 163 163 163 152 170 167 166 151 164 144 147 155 154 154 162 157 166 178 195 139 102 109 107 101 98 92 85 78 78 86 93 97 100 101 105 106 111 112 112 117 109 88 79 79 70 65 51 37 28 29 33 51 58 56 55 49 39 35 27 23 71 93 103 108 108 109 107 102 96 91 89 85 85 85 85 81
165 161 156 176 201 173 169 218 176 154 160 159 160 174 163 162 155 165 161 157 166 165 162 174 165 174 185 173 102 115 119 119 121 116 106 103 101 103 100 97 99 95 93 96 102 106 106 114 102 73 63 62 57 51 59 56 41 32 29 31 44 53 57 51 45 43 35 27 12 49 93 111 112 113 113 109 106 100 95 92 87 85 84 80 79
157 170 172 172 188 207 176 189 191 155 161 161 165 166 159 168 163 159 169 162 171 168 171 174 168 169 187 156 126 130 127 131 141 137 130 130 134 145 131 132 122 118 118 122 138 153 160 122 79 63 56 61 60 56 57 66 62 43 32 33 40 49 58 53 48 44 38 27 19 26 80 100 105 107 108 107 107 108 106 100 93 87 84 81 79
175 177 173 180 184 211 200 176 190 156 165 161 158 145 169 173 165 165 168 173 167 167 174 176 171 167 180 162 148 147 138 148 156 142 141 150 164 163 150 148 146 141 156 159 175 162 106 84 79 77 72 69 64 61 59 59 63 59 43 39 45 49 59 64 55 50 34 34 22 19 86 101 102 104 106 107 107 103 97 96 96 95 89 86 80
171 174 172 182 188 205 197 172 190 159 161 162 150 148 176 178 171 170 184 175 167 174 175 179 177 170 168 162 166 156 153 161 168 149 154 161 174 166 153 156 161 170 182 174 156 117 103 99 103 101 96 84 82 73 70 63 60 61 57 50 53 53 55 64 65 52 49 33 26 25 34 86 107 103 94 93 96 90 93 92 91 88 87 85 84
185 181 173 181 188 194 204 190 184 167 164 168 160 164 178 190 159 166 183 166 174 175 175 175 180 174 174 167 168 166 162 161 168 157 161 169 175 161 153 170 174 178 162 165 144 131 128 130 130 123 110 101 91 83 79 69 62 56 61 61 58 55 59 66 64 61 53 43 34 29 26 34 68 81 94 96 94 94 94 94 92 91 87 82 82
188 180 177 187 173 182 202 202 188 176 174 174 170 156 166 198 214 171 177 166 178 176 170 176 183 177 176 173 170 175 169 165 170 170 168 176 171 153 156 179 178 166 154 153 147 140 146 144 133 128 120 108 93 86 83 76 64 56 52 63 58 59 57 65 68 63 63 52 39 36 32 28 43 71 71 77 90 98 93 93 95 93 89 91 87
174 182 181 184 178 179 195 190 193 191 176 174 176 167 173 179 195 194 156 175 181 174 172 178 182 185 176 179 180 174 173 167 171 174 174 172 161 155 162 174 169 164 154 147 140 147 149 140 134 129 124 117 113 104 97 87 76 61 56 64 66 59 54 50 59 63 61 53 50 42 38 34 36 40 76 82 87 84 92 95 93 91 90 90 87
177 182 179 175 187 186 183 182 187 202 183 180 180 181 174 172 173 168 205 192 182 174 167 176 183 183 177 179 184 172 176 175 172 177 177 166 160 163 161 167 169 159 142 141 142 146 141 136 125 120 121 117 114 109 98 92 82 77 68 63 61 67 61 61 64 66 71 73 61 59 50 45 36 37 39 79 83 83 82 82 82 90 93 87 88
186 177 173 178 182 175 171 182 184 199 193 184 180 182 160 165 168 179 190 196 195 180 172 174 178 181 181 182 189 185 174 180 179 178 182 172 159 167 163 170 163 152 142 140 134 125 126 119 115 118 115 113 110 105 98 93 89 74 71 66 69 65 68 66 61 61 68 70 75 70 66 51 50 31 35 38 67 82 76 79 82 81 85 95 92
180 167 166 181 176 175 175 180 191 197 192 189 180 177 171 165 170 182 186 189 190 184 174 173 178 181 184 186 192 194 183 178 181 181 180 175 170 166 161 166 164 150 141 137 132 133 133 128 131 123 125 119 117 114 109 97 95 83 75 76 70 69 68 62 58 58 58 54 53 64 69 78 60 53 39 36 44 65 71 70 73 77 83 83 84
179 174 180 180 175 178 176 185 188 194 187 197 189 177 182 189 184 174 183 182 186 188 192 181 179 183 179 187 189 194 196 182 181 180 183 175 179 167 159 170 159 140 143 139 133 131 138 141 135 125 121 117 117 117 117 116 109 104 93 86 86 84 71 75 65 63 58 55 54 53 53 61 71 67 52 50 36 48 59 67 67 68 71 77 90
186 185 181 175 177 177 178 184 184 192 190 197 199 194 196 186 185 188 173 179 182 187 194 199 177 177 173 178 187 194 194 194 176 177 184 179 177 173 170 165 162 143 146 142 139 146 156 143 142 144 133 142 129 121 117 117 115 110 102 90 89 81 75 58 55 53 61 62 63 55 53 59 86 86 77 60 56 51 58 61 63 65 71 75 75
179 177 181 182 181 181 180 186 185 192 193 193 196 198 198 188 182 187 200 180 180 187 194 194 191 183 172 175 184 191 196 199 181 172 181 186 174 173 171 168 163 156 154 148 146 149 157 148 145 154 144 146 138 129 124 120 114 107 102 93 85 86 80 86 75 75 66 73 72 68 48 43 60 86 97 86 72 59 58 60 60 61 65 73 73
181 179 181 186 187 182 181 187 187 190 192 189 188 184 187 184 192 195 192 186 183 176 179 181 194 188 184 180 181 188 197 199 190 174 179 185 177 174 170 167 165 159 157 153 149 149 156 154 147 155 154 149 149 140 136 125 113 107 93 91 82 78 79 83 82 70 71 65 64 75 70 55 56 57 66 75 81 78 70 56 55 50 56 63 65
179 178 179 185 186 183 175 183 184 184 183 172 173 173 175 182 189 204 215 217 199 177 168 180 188 184 194 192 183 188 192 198 193 177 177 182 180 174 168 167 166 163 160 159 147 153 159 167 158 149 151 146 156 142 136 128 116 103 90 78 81 73 64 58 73 75 75 76 74 70 71 53 57 55 63 61 59 68 77 76 67 59 52 64 65
176 178 178 181 186 184 178 181 186 181 179 167 162 169 168 181 191 206 225 225 210 193 182 178 180 194 190 197 196 189 188 194 195 181 181 179 183 175 171 172 171 166 167 166 162 163 171 168 171 152 139 111 103 126 128 120 100 93 86 65 66 74 62 77 72 89 99 109 111 87 92 81 74 74 67 62 66 66 86 108 101 95 73 65 67
175 181 183 186 188 189 178 186 188 179 177 177 176 175 181 185 193 201 207 203 201 190 195 176 185 196 190 196 196 193 187 191 192 181 183 176 179 175 172 179 179 173 172 178 175 174 174 168 157 160 146 139 136 133 135 126 121 90 74 75 62 74 79 92 83 65 74 71 95 101 107 92 84 79 78 71 71 69 67 70 76 85 90 78 58
192 186 190 192 189 187 186 184 180 186 187 187 181 184 188 192 188 196 191 192 189 187 197 193 181 188 200 200 197 184 184 187 188 183 179 174 171 174 175 176 174 182 179 174 168 163 158 157 151 138 163 149 152 159 157 131 123 152 146 128 50 35 83 92 95 80 54 59 88 118 131 131 116 115 98 83 68 72 67 64 62 63 76 89 83
187 189 192 186 187 192 192 182 184 188 190 186 180 190 186 185 181 184 178 178 185 182 183 194 182 177 196 203 203 196 186 184 182 173 174 175 170 172 178 174 177 171 163 162 156 150 160 165 168 158 156 134 138 167 171 178 133 115 101 95 159 143 290 33 121 147 137 151 109 136 138 133 147 151 142 107 91 78 71 70 68 61 54 80 105
185 190 187 191 193 196 192 185 188 190 189 189 184 179 171 159 156 146 153 146 177 188 202 194 198 188 195 200 212 201 192 186 183 174 175 177 170 174 171 175 178 175 172 163 166 163 162 166 167 174 155 144 161 184 198 196 147 135 145 182 155 117 291 247 182 231 167 178 173 163 150 150 166 158 127 127 129 108 93 84 76 65 60 66 88
188 191 192 194 198 198 195 188 184 188 188 181 170 152 136 137 135 102 106 81 52 156 183 224 205 200 199 204 211 211 204 184 182 184 177 181 176 173 175 180 180 181 177 173 171 172 173 175 175 169 181 166 167 174 196 201 184 176 134 130 116 204 219 189 137 257 162 180 205 170 174 160 180 179 129 131 118 117 120 95 88 73 74 66 78
197 198 191 192 186 189 189 182 179 176 182 178 164 153 158 158 160 162 165 175 183 179 199 202 197 197 202 188 191 201 209 195 180 184 186 179 178 177 176 177 182 181 180 178 177 173 177 176 184 181 187 191 165 168 179 212 198 212 214 107 156 172 177 165 134 215 113 205 198 180 171 183 184 165 132 130 133 135 121 117 105 97 80 89 105
204 178 181 189 189 183 186 181 178 174 173 167 164 156 162 174 182 191 192 193 193 207 194 202 206 211 171 181 194 195 203 194 190 183 188 186 180 179 178 181 182 184 183 180 181 183 183 185 183 187 194 182 169 172 179 186 191 221 214 147 120 167 137 140 184 104 154 264 184 174 194 196 177 149 150 158 156 141 138 130 135 136 140 129 117
179 170 179 184 189 185 179 180 174 170 171 157 167 166 168 177 177 190 196 201 202 194 177 196 213 196 199 190 178 199 203 198 189 186 186 185 185 181 181 181 183 185 180 187 188 186 184 190 192 194 190 188 184 179 180 180 181 196 203 160 122 80 159 158 150 158 150 160 210 230 193 185 200 187 162 165 160 154 155 156 150 156 142 143 106
170 174 179 180 181 178 172 171 175 166 171 160 165 174 172 176 176 183 198 207 187 195 174 184 194 189 202 186 184 192 197 199 194 188 188 185 184 184 184 186 184 182 182 188 189 184 186 183 186 193 197 199 195 191 177 187 191 184 172 175 145 159 178 221 156 135 131 121 171 183 187 189 180 244 191 165 168 158 164 165 171 170 158 153 151
167 164 165 166 176 174 173 173 182 169 167 168 164 178 179 172 180 185 191 196 193 206 197 192 195 182 198 193 188 184 193 194 199 194 190 188 185 184 188 188 186 179 181 186 182 183 185 185 189 193 193 198 202 196 190 187 191 181 187 171 170 156 169 213 185 181 114 133 160 190 184 170 184 231 191 169 165 165 160 159 163 161 160 175 177
147 152 162 166 170 172 173 176 184 170 169 177 171 181 183 182 186 186 189 192 192 194 206 210 191 188 197 196 191 189 185 194 186 197 195 193 192 188 189 189 183 176 181 184 185 186 187 188 188 188 194 203 212 209 198 195 190 180 175 175 180 176 174 176 197 177 144 135 86 144 157 185 172 161 207 175 159 163 157 158 165 191 186 174 175